CZ-4C R/B, 40112

Orbit data source: Space-Track

CZ-4C R/B, 40112 is space debris in LEO originally from a launch on Sat, 09 Aug 2014 UTC launched from the Jiuquan Satellite Launch Center, China (JSC). Debris objects in space refer to the collection of defunct objects orbiting the Earth. Examples of debris include non-operational satellites, rocket bodies, and fragments generated from explosions, collisions, or faulty payload assembly.

Loading next visibility...
Identifier
40112, 2014-047D
Orbit
LEO
Last TLE update
12 hours ago
Origin
Manufacturer
SAST
Mission
Spacecraft
Bus & Motor
CZ-4 STAGE 3, Unknown motor
Mass
~1,000 kg wet, ~1,000 kg dry
Launch date (UTC)
2014-08-09 (11 years ago)
Launch vehicle
Unknown
Launch site
Jiuquan Satellite Launch Center, China (JSC)
Object type
Payload
Rocket body
Debris
Shape & HBR
Cyl, 2.9 m
Radar Cross Section
20.385 m², Large (>1 m²)

Expand to show TLE details & history

TLE from 12 hours ago
0 CZ-4C R/B
1 40112U 14047D   25128.73693668 -.00000007  00000-0  45617-4 0  9995
2 40112  63.4161 272.9758 0521504 359.6165   0.4403 13.70139893537384
Epoch: 2025-05-08T17:41Z
Definitive object data (Epoch: 2025-05-08T17:41:11.329Z)
Latitude
-0.00005°
Longitude
140.87543°
Altitude
616.118 km
Speed
7.746 km/s
True Right ascension
18h 11m 54s
True Declination
0° 00' 00"
Sunlit
Object was in full shadow at TLE epoch
Visualization TLE readout
Latitude
-11.94895°
Longitude
133.46095°
Altitude
627.077 km
Speed
7.735 km/s
Apparent Right ascension
20h 41m 19s
Apparent Declination
-44° 02' 33"
Sunlit
Object is in full shadow
Visualization observer readout
Local Sidereal Time
14:02:07
Azimuth
122.697° SE
Elevation
-32.678°
Doppler factor
1
Orbital elements
Apogee altitude
1,382.539 km
Perigee altitude
613.215 km
Semi-major axis
7,376.014 km
Eccentricity
0.0521504
Inclination
63.4161°
RAAN
272.9758°
Arg. of periapsis
359.6165°
True anomaly
0.48942°
Mean anomaly
0.4403°
Eccentric anomaly
0.46452°
Mean motion
3.42618 °/min
BSTAR
0.000045617
Orbital period
105.07 mins
Loading maneuver chart data...
Loading SW <> Apogee altitude chart data...
Loading historical data...
Loading historical data...
Loading historical data...
Loading historical data...
Loading historical data...
Loading historical data...
Loading historical data...

CZ-4C R/B Visibility forecast

Observer location: undefined°, undefined°

Span
Click to sort rows by Start time (UTC) header in descending order
Start Az.
Max El. time (UTC)
Max El. Az.
Max El.
End time (UTC)
End Az.
9 mins2025-05-09 11:20:22.913Z205.211° SW2025-05-09 11:24:22.913Z82.577° E43.656°2025-05-09 11:29:22.913Z36.731° NE
5 mins2025-05-09 13:11:22.913Z298.8° NW2025-05-09 13:13:22.913Z327.157° NNW17.9°2025-05-09 13:16:22.913Z3.007° NNE
12 mins2025-05-09 18:42:22.913Z348.234° N2025-05-09 18:47:22.913Z45.041° ENE29.194°2025-05-09 18:54:22.913Z106.425° ESE
14 mins2025-05-09 20:30:22.913Z318.161° NNW2025-05-09 20:36:22.913Z240.484° WSW42.345°2025-05-09 20:44:22.913Z161.882° S
4 mins2025-05-09 22:22:22.913Z268.305° W2025-05-09 22:24:22.913Z252.98° W12.321°2025-05-09 22:26:22.913Z238.319° WSW
|